Location: Hermaringen
(48.5952°N, 10.2585°E)
Time: 02:26:20
(UTC+00:00)

BREEZE-M DEB (TANK) - Pass Details

Date: 18 November 2025
Orbit: 304 x 15920 km, 49.4° (Epoch: 03 December)

Event Time Altitude Azimuth Distance (km) Brightness Sun altitude
Rises 17:30:14 0° 256° (WSW) 2,122 7.0 -18.6°
Reaches altitude 10° 17:31:34 10° 256° (WSW) 1,452 5.7 -18.9°
Maximum altitude 17:34:16 87° 168° (SSE) 618 2.4 -19.3°
Enters shadow 17:36:08 37° 79° (E) 1,244 3.5 -19.6°
